Location: ???????
(55.3754°N, 39.3545°E)
Time: 18:51:08
(UTC+00:00)

ADEOS Rocket - Pass Details

Date: 14 April 2026
Orbit: 859 x 1304 km, 98.8° (Epoch: 19 May)

Event Time Altitude Azimuth Distance (km) Brightness Sun altitude
Rises 23:08:04 0° 17° (NNE) 4,019 7.7 -21.3°
Reaches altitude 10° 23:10:41 10° 22° (NNE) 3,111 6.8 -21.1°
Maximum altitude 23:17:45 54° 99° (E) 1,487 4.0 -20.6°
Enters shadow 23:23:12 20° 170° (S) 2,619 4.8 -20.2°
